Location: Asheville, NC
(35.6000°N, 82.5500°W)
Time: 14:49:26
(UTC-05:00)

STARS - Pass Details

Date: 11 January 2018
Orbit: 625 x 641 km, 98.3° (Epoch: 17 January)

Event Time Altitude Azimuth Distance (km) Brightness Sun altitude
Rises 18:16:45 0° 17° (NNE) 2,925 ? -8.3°
Reaches altitude 10° 18:18:59 10° 22° (NNE) 2,016 ? -8.7°
Maximum altitude 18:23:18 55° 101° (E) 762 ? -9.5°
Drops below altitude 10° 18:27:35 10° 179° (S) 2,012 ? -10.4°
Sets 18:29:49 0° 184° (S) 2,918 ? -10.8°
